Location: Miles
(41.4492°N, 81.6087°W)
Time: 21:18:11
(UTC+00:00)

Vanguard 2 Rocket - Pass Details

Date: 19 September 2024
Orbit: 553 x 3298 km, 32.9° (Epoch: 12 October)

Event Time Altitude Azimuth Distance (km) Brightness Sun altitude
Rises 06:57:40 0° 249° (WSW) 4,135 - -41.9°
Reaches altitude 10° 07:00:02 10° 245° (WSW) 3,443 - -41.7°
Maximum altitude 07:09:00 56° 170° (S) 2,292 - -40.7°
Exits shadow 07:11:16 51° 138° (SE) 2,566 8.9 -40.4°
Drops below altitude 10° 07:24:29 10° 98° (E) 5,708 11.2 -38.9°
Sets 07:29:42 0° 95° (E) 7,000 11.8 -38.2°
